| time (UTC) | temp F | wind direction | speed MPH | gust MPH | rain 1hr in | rain 24hr in | rain mn in | humidity % | barometer mb |
| 20260505090028 | 60 | 193 | 1.0 | 8.0 | 0.00 | 0.03 | 0.03 | 75 | 1005.7 |
| 20260505084528 | 61 | 174 | 2.0 | 15.0 | 0.00 | 0.03 | 0.03 | 74 | 1005.6 |
| 20260505083028 | 61 | 210 | 2.0 | 11.0 | 0.00 | 0.03 | 0.03 | 75 | 1005.2 |
| 20260505081524 | 60 | 266 | 2.0 | 10.0 | 0.01 | 0.03 | 0.03 | 76 | 1004.9 |
| 20260505080024 | 60 | 271 | 3.0 | 12.0 | 0.03 | 0.03 | 0.03 | 78 | 1004.9 |
| 20260505074524 | 60 | 250 | 2.0 | 10.0 | 0.03 | 0.03 | 0.03 | 79 | 1004.5 |
| 20260505073024 | 60 | 88 | 2.0 | 10.0 | 0.03 | 0.03 | 0.03 | 78 | 1004.3 |
| 20260505072220 | 61 | 193 | 3.0 | 9.0 | 0.02 | 0.02 | 0.02 | 76 | 1004.2 |
| 20260505070024 | 63 | 195 | 3.0 | 10.0 | 0.00 | 0.00 | 0.00 | 71 | 1004.2 |
| 20260505064524 | 64 | 208 | 2.0 | 11.0 | 0.00 | 0.00 | 0.00 | 68 | 1004.1 |
| 20260505063024 | 64 | 210 | 2.0 | 8.0 | 0.00 | 0.00 | 0.00 | 68 | 1004.2 |
| 20260505061524 | 63 | 266 | 2.0 | 11.0 | 0.00 | 0.00 | 0.00 | 68 | 1004.1 |
| 20260505060024 | 63 | 143 | 2.0 | 8.0 | 0.00 | 0.00 | 0.00 | 69 | 1004.3 |
| 20260505054523 | 63 | 203 | 2.0 | 9.0 | 0.00 | 0.00 | 0.00 | 69 | 1004.4 |
| 20260505053721 | 63 | 72 | 1.0 | 11.0 | 0.00 | 0.00 | 0.00 | 69 | 1004.6 |
| 20260505051524 | 64 | 115 | 2.0 | 9.0 | 0.00 | 0.00 | 0.00 | 69 | 1004.9 |
| 20260505041524 | 64 | 127 | 2.0 | 9.0 | 0.00 | 0.00 | 0.00 | 69 | 1005.0 |
| 20260505040022 | 64 | 167 | 2.0 | 9.0 | 0.00 | 0.00 | 0.00 | 70 | 1005.1 |
| 20260505034522 | 63 | 134 | 1.0 | 7.0 | 0.00 | 0.00 | 0.00 | 72 | 1005.0 |
| 20260505033020 | 63 | 210 | 1.0 | 5.0 | 0.00 | 0.00 | 0.00 | 74 | 1005.0 |
| 20260505031521 | 63 | 128 | 0.0 | 4.0 | 0.00 | 0.00 | 0.00 | 74 | 1005.2 |
| 20260505030020 | 63 | 200 | 0.0 | 4.0 | 0.00 | 0.00 | 0.00 | 74 | 1005.1 |
| 20260505024519 | 63 | 215 | 1.0 | 5.0 | 0.00 | 0.00 | 0.00 | 74 | 1005.0 |
| 20260505023016 | 63 | 144 | 1.0 | 3.0 | 0.00 | 0.00 | 0.00 | 74 | 1005.1 |
| 20260505021516 | 62 | 73 | 1.0 | 2.0 | 0.00 | 0.00 | 0.00 | 74 | 1005.1 |
| 20260505020017 | 62 | 270 | 1.0 | 4.0 | 0.00 | 0.00 | 0.00 | 74 | 1005.0 |
| 20260505014516 | 62 | 211 | 0.0 | 1.0 | 0.00 | 0.00 | 0.00 | 72 | 1004.8 |
| 20260505013014 | 62 | 113 | 0.0 | 3.0 | 0.00 | 0.00 | 0.00 | 71 | 1004.9 |
| 20260505011512 | 62 | 307 | 0.0 | 2.0 | 0.00 | 0.00 | 0.00 | 71 | 1004.8 |
| 20260505010008 | 62 | 151 | 0.0 | 3.0 | 0.00 | 0.00 | 0.00 | 70 | 1004.9 |
| 20260505004506 | 63 | 207 | 0.0 | 2.0 | 0.00 | 0.00 | 0.00 | 69 | 1004.8 |
| 20260505003006 | 64 | 117 | 0.0 | 3.0 | 0.00 | 0.00 | 0.00 | 67 | 1004.6 |
| 20260505001506 | 65 | 260 | 0.0 | 4.0 | 0.00 | 0.00 | 0.00 | 65 | 1004.6 |
| 20260505000006 | 66 | 200 | 1.0 | 6.0 | 0.00 | 0.00 | 0.00 | 64 | 1004.5 |
| 20260504234506 | 66 | 76 | 1.0 | 5.0 | 0.00 | 0.00 | 0.00 | 64 | 1004.6 |
| 20260504232959 | 66 | 140 | 2.0 | 8.0 | 0.00 | 0.00 | 0.00 | 63 | 1004.6 |
| 20260504231500 | 67 | 168 | 2.0 | 10.0 | 0.00 | 0.00 | 0.00 | 61 | 1004.8 |
| 20260504225958 | 67 | 259 | 2.0 | 12.0 | 0.00 | 0.00 | 0.00 | 60 | 1004.9 |
| 20260504224458 | 69 | 54 | 1.0 | 6.0 | 0.00 | 0.00 | 0.00 | 58 | 1005.0 |
| 20260504222958 | 69 | 220 | 3.0 | 12.0 | 0.00 | 0.00 | 0.00 | 55 | 1004.8 |
| 20260504221458 | 70 | 272 | 4.0 | 17.0 | 0.00 | 0.00 | 0.00 | 54 | 1004.9 |
| 20260504215956 | 72 | 269 | 4.0 | 12.0 | 0.00 | 0.00 | 0.00 | 54 | 1004.8 |
| 20260504214455 | 71 | 250 | 4.0 | 12.0 | 0.00 | 0.00 | 0.00 | 54 | 1004.9 |
| 20260504212956 | 71 | 8 | 3.0 | 15.0 | 0.00 | 0.00 | 0.00 | 55 | 1004.9 |
| 20260504211455 | 71 | 269 | 4.0 | 18.0 | 0.00 | 0.00 | 0.00 | 56 | 1004.8 |
| 20260504205955 | 71 | 219 | 5.0 | 14.0 | 0.00 | 0.00 | 0.00 | 57 | 1005.4 |
| 20260504204455 | 72 | 254 | 5.0 | 21.0 | 0.00 | 0.00 | 0.00 | 55 | 1005.2 |
| 20260504203701 | 73 | 233 | 3.0 | 14.0 | 0.00 | 0.00 | 0.00 | 57 | 1005.3 |
| 20260504201455 | 72 | 82 | 4.0 | 16.0 | 0.00 | 0.00 | 0.00 | 57 | 1005.6 |
| 20260504195955 | 71 | 264 | 3.0 | 11.0 | 0.00 | 0.00 | 0.00 | 58 | 1005.7 |
| 20260504195155 | 72 | 156 | 3.0 | 11.0 | 0.00 | 0.00 | 0.00 | 57 | 1005.7 |
| 20260504192956 | 72 | 228 | 6.0 | 14.0 | 0.00 | 0.00 | 0.00 | 55 | 1005.8 |
| 20260504191455 | 72 | 68 | 3.0 | 12.0 | 0.00 | 0.00 | 0.00 | 58 | 1005.8 |
| 20260504185955 | 71 | 248 | 3.0 | 11.0 | 0.00 | 0.00 | 0.00 | 58 | 1005.8 |
| 20260504184455 | 71 | 217 | 3.0 | 11.0 | 0.00 | 0.00 | 0.00 | 59 | 1006.1 |
| 20260504182956 | 71 | 126 | 3.0 | 10.0 | 0.00 | 0.00 | 0.00 | 57 | 1006.1 |
| 20260504181456 | 70 | 111 | 3.0 | 10.0 | 0.00 | 0.00 | 0.00 | 58 | 1006.4 |
| 20260504175954 | 69 | 144 | 4.0 | 14.0 | 0.00 | 0.00 | 0.00 | 60 | 1006.4 |
| 20260504174453 | 68 | 284 | 3.0 | 9.0 | 0.00 | 0.00 | 0.00 | 61 | 1006.4 |
| 20260504172953 | 67 | 142 | 3.0 | 14.0 | 0.00 | 0.00 | 0.00 | 60 | 1006.5 |
| 20260504171453 | 67 | 161 | 3.0 | 11.0 | 0.00 | 0.00 | 0.00 | 61 | 1006.8 |
| 20260504150631 | 59 | 20 | 3.0 | 8.0 | 0.00 | 0.00 | 0.00 | 67 | 1007.9 |
| 20260504110630 | 49 | 207 | 2.0 | 6.0 | 0.00 | 0.00 | 0.00 | 72 | 1008.1 |